Regional Weather Roundup
Issued by NWS

Home | Current Version | Previous Version | Graphics & Text | Print | Product List | Glossary On
Versions: 1 2 3 4 5 6 7 8 9 10 11 12 13 14 15 16 17 18 19 20 21 22 23 24 25 26 27 28 29 30 31 32 33 34 35 36 37 38 39 40 41 42 43 44 45 46 47 48 49 50
000
ASUS45 KPSR 211810
RWRAZ

ARIZONA HOURLY REGIONAL WEATHER ROUNDUP
NATIONAL WEATHER SERVICE PHOENIX AZ
1100 AM MST TUE FEB 21 2017

NOTE: FAIR INDICATES FEW OR NO CLOUDS BELOW 12,000 FEET WITH NO
SIGNIFICANT WEATHER AND/OR OBSTRUCTIONS TO VISIBILITY.

AZZ001>003-036-211900-
NORTHWEST ARIZONA

CITY           SKY/WX    TMP DP  RH WIND       PRES   REMARKS
BULLHEAD CITY  CLOUDY    63  52  67 SW9       30.30S
KINGMAN        PTSUNNY   59  39  47 SW7       30.33F
6HR MIN TEMP:  40; 6HR MAX TEMP:  59;

$$

AZZ004>008-015-016-018-211900-
NORTH CENTRAL ARIZONA

CITY           SKY/WX    TMP DP  RH WIND       PRES   REMARKS
GRAND CANYON   MOSUNNY   51  40  65 SW14G20   30.41S
6HR MIN TEMP:  30; 6HR MAX TEMP:  52;

WILLIAMS       SUNNY     54  39  58 W8G17     30.43F
PRESCOTT       MOSUNNY   57  45  64 NE5       30.39F
6HR MIN TEMP:  34; 6HR MAX TEMP:  57;

FLAGSTAFF      SUNNY     52  38  58 W8        30.44R
6HR MIN TEMP:  29; 6HR MAX TEMP:  52;

PAYSON         SUNNY     59  43  55 VRB6      30.42S
PAGE           SUNNY     54  38  54 N5        30.31S
6HR MIN TEMP:  41; 6HR MAX TEMP:  54;

$$

AZZ009>014-017-211900-
NORTHEAST ARIZONA

CITY           SKY/WX    TMP DP  RH WIND       PRES   REMARKS
WINSLOW        SUNNY     59  39  47 E6        30.39S
6HR MIN TEMP:  34; 6HR MAX TEMP:  59;

SAINT JOHNS    SUNNY     56  37  49 NW3       30.40F
6HR MIN TEMP:  26; 6HR MAX TEMP:  57;

WINDOW ROCK    SUNNY     52  37  56 CALM      30.42S
6HR MIN TEMP:  25; 6HR MAX TEMP:  52;

SHOW LOW       SUNNY     52  36  54 CALM      30.44S
$$

AZZ023-211900-
GREATER PHOENIX AREA

CITY           SKY/WX    TMP DP  RH WIND       PRES   REMARKS
PHOENIX        MOSUNNY   65  50  58 E6        30.31S
6HR MIN TEMP:  52; 6HR MAX TEMP:  65;

BUCKEYE        SUNNY     63  57  82 CALM      30.33S
GLENDALE       MOSUNNY   63  55  77 CALM      30.34S
LUKE AFB       SUNNY     64  52  64 CALM      30.31S
6HR MIN TEMP:  49; 6HR MAX TEMP:  64;

DEER VALLEY    SUNNY     63  51  65 S5        30.32S
6HR MIN TEMP:  50; 6HR MAX TEMP:  63;

SCOTTSDALE     SUNNY     64  49  57 W5        30.32R
6HR MIN TEMP:  50; 6HR MAX TEMP:  64;

MESA-FALCON    SUNNY    N/A N/A N/A E6        30.29S
MESA-GATEWAY   SUNNY     61  52  72 CALM      30.33F
CHANDLER       SUNNY     63  50  63 CALM      30.32F
$$

AZZ027-028-211900-
SOUTHWEST MARICOPA COUNTY AND PINAL COUNTY

CITY           SKY/WX    TMP DP  RH WIND       PRES   REMARKS
CASA GRANDE    NOT AVBL
$$

AZZ503-504-507>509-211900-
SOUTHEAST ARIZONA

CITY           SKY/WX    TMP DP  RH WIND       PRES   REMARKS
TUCSON         SUNNY     59  45  59 CALM      30.35S
6HR MIN TEMP:  44; 6HR MAX TEMP:  60;

DAVIS-MONTHAN  SUNNY     61  45  56 VRB5      30.34S
6HR MIN TEMP:  45; 6HR MAX TEMP:  61;

RYAN FIELD     SUNNY     63  45  51 CALM      30.36R
NOGALES        SUNNY     61  42  49 SW5       30.34F
6HR MIN TEMP:  37; 6HR MAX TEMP:  61;

SIERRA VISTA   SUNNY     65  36  34 VRB5      30.39S
6HR MIN TEMP:  41; 6HR MAX TEMP:  65;

DOUGLAS        SUNNY     62  41  46 CALM      30.36F
6HR MIN TEMP:  33; 6HR MAX TEMP:  62;

SAFFORD        SUNNY     59  43  55 VRB5      30.34F
6HR MIN TEMP:  39; 6HR MAX TEMP:  60;

$$

AZZ020-021-025-026-031-211900-
SOUTHWEST ARIZONA

CITY           SKY/WX    TMP DP  RH WIND       PRES   REMARKS
YUMA           MOSUNNY   70  54  56 E5        30.29S
6HR MIN TEMP:  55; 6HR MAX TEMP:  70;

$$

CAZ031-033-041-043-047-048-061-211900-
SOUTHERN CALIFORNIA

CITY           SKY/WX    TMP DP  RH WIND       PRES   REMARKS
DOWNTOWN L.A.  LGT RAIN  62  59  90 CALM      30.34R FOG
6HR MIN TEMP:  59; 6HR MAX TEMP:  62; 6HR PCP:  0.03;

L.A. AIRPORT   CLOUDY    61  58  90 VRB3      30.34R
6HR MIN TEMP:  57; 6HR MAX TEMP:  61; 6HR PCP:  0.01;

SAN DIEGO      PTSUNNY   67  53  61 NW7       30.34R
6HR MIN TEMP:  56; 6HR MAX TEMP:  67;

BURBANK        CLOUDY    59  55  87 SW5       30.34R
6HR MIN TEMP:  56; 6HR MAX TEMP:  59; 6HR PCP:  0.05;

ONTARIO        CLOUDY    61  54  77 E3        30.31F
6HR MIN TEMP:  55; 6HR MAX TEMP:  61;

RIVERSIDE      CLOUDY    61  55  81 E8        30.31F
6HR MIN TEMP:  56; 6HR MAX TEMP:  62;

PALM SPRINGS   PTSUNNY   69  56  62 VRB3      30.32S
6HR MIN TEMP:  56; 6HR MAX TEMP:  69;

EL CENTRO NAS  MOSUNNY   67  55  65 VRB3      30.31S
6HR MIN TEMP:  48; 6HR MAX TEMP:  67;

IMPERIAL       SUNNY     67  57  70 CALM      30.29S
6HR MIN TEMP:  49; 6HR MAX TEMP:  67;

BLYTHE         SUNNY     64  56  75 CALM      30.30S
6HR MIN TEMP:  51; 6HR MAX TEMP:  64;

NEEDLES        PTSUNNY   64  52  64 CALM      30.30F
6HR MIN TEMP:  54; 6HR MAX TEMP:  64;

$$

NVZ020-UTZ003-211900-
SOUTHERN NEVADA-UTAH

CITY           SKY/WX    TMP DP  RH WIND       PRES   REMARKS
LAS VEGAS      CLOUDY    67  32  27 SW12G21   30.22S
6HR MIN TEMP:  58; 6HR MAX TEMP:  67;

SALT LAKE CITY MOSUNNY   59  38  45 S35G45    30.02F
6HR MIN TEMP:  51; 6HR MAX TEMP:  59;

$$

NMZ009-TXZ055-211900-
NEW MEXICO-WEST TEXAS

CITY           SKY/WX    TMP DP  RH WIND       PRES   REMARKS
ALBUQUERQUE    SUNNY     57  34  41 N9        30.35F
6HR MIN TEMP:  42; 6HR MAX TEMP:  57;

EL PASO        SUNNY     61  33  35 S5        30.31F
6HR MIN TEMP:  38; 6HR MAX TEMP:  61;

$$


........................KEY........................
SKY/WX - SKY CONDITION/WEATHER
TMP    - TEMPERATURE IN FAHRENHEIT
DP     - DEW POINT IN FAHRENHEIT
RH     - RELATIVE HUMIDITY IN PERCENT
WIND   - DIRECTION AND SPEED IN MILES PER HOUR (MPH)
VRB    - VARIABLE WIND DIRECTION
PRES   - MEAN SEA LEVEL PRESSURE IN INCHES OF MERCURY
         F - FALLING PRESSURE   R - RISING PRESSURE
         S - STEADY PRESSURE
VSB    - VISIBILITY IN MILES
HX     - HEAT INDEX IN FAHRENHEIT
WCI    - WIND CHILL INDEX IN FAHRENHEIT
TC     - TEMPERATURE IN CELSIUS WHICH IS ALSO KNOWN AS
         TEMPERATURE IN CENTIGRADE
AFB    - AIR FORCE BASE
         LUKE AFB IS LUKE AIR FORCE BASE
         DAVIS-MONTHAN IS DAVIS-MONTHAN AIR FORCE BASE
NAS    - NAVAL AIR STATION
         EL CENTRO NAS IS EL CENTRO NAVAL AIR STATION
N/A    - NOT AVAILABLE




USA.gov is the U.S. government's official web portal to all federal, state and local government web resources and services.